timestamp,surface_pressure_avg,surface_temp_avg,battery_voltage,lat,long
2018-05-16 00:00:00+00:00,385.0213,6.68,13.13,47.84626,-54.09684
2018-05-16 00:10:00+00:00,383.6362,6.7,13.05,47.84626,-54.09684
2018-05-16 00:20:00+00:00,384.9312,6.7,13.05,47.84626,-54.09684
2018-05-16 00:30:00+00:00,382.6963,6.79,13.05,47.84626,-54.09684
2018-05-16 00:40:00+00:00,378.118,6.7,13.13,47.84626,-54.09684
2018-05-16 00:50:00+00:00,374.1879,6.4,13.13,47.84626,-54.09684
2018-05-16 01:00:00+00:00,368.9195,6.42,13.05,47.84626,-54.09684
2018-05-16 01:10:00+00:00,364.3529,6.54,12.97,47.84626,-54.09684
2018-05-16 01:20:00+00:00,359.3329,6.7,13.05,47.84626,-54.09684
2018-05-16 01:30:00+00:00,352.6363,6.79,13.05,47.84626,-54.09684
2018-05-16 01:40:00+00:00,345.8997,6.8,13.05,47.84626,-54.09684
2018-05-16 01:50:00+00:00,340.828,6.88,13.05,47.84626,-54.09684
2018-05-16 02:00:00+00:00,334.6463,6.9,13.05,47.84626,-54.09684
2018-05-16 02:10:00+00:00,321.973,6.9,12.97,47.84626,-54.09684
2018-05-16 02:20:00+00:00,313.1813,7.0,13.05,47.84626,-54.09684
2018-05-16 02:30:00+00:00,311.5113,7.19,13.05,47.84626,-54.09684
2018-05-16 02:40:00+00:00,300.988,7.29,13.05,47.84626,-54.09684
2018-05-16 02:50:00+00:00,288.1396,7.3,13.05,47.84626,-54.09684
2018-05-16 03:00:00+00:00,281.293,7.29,12.97,47.84626,-54.09684
2018-05-16 03:10:00+00:00,274.4764,7.29,12.97,47.84626,-54.09684
2018-05-16 03:20:00+00:00,264.8164,7.29,12.97,47.84626,-54.09684
2018-05-16 03:30:00+00:00,253.4031,7.3,12.97,47.84626,-54.09684
2018-05-16 03:40:00+00:00,245.9914,7.3,13.05,47.84626,-54.09684
2018-05-16 03:50:00+00:00,237.2014,7.3,13.05,47.84626,-54.09684
2018-05-16 04:00:00+00:00,226.7098,7.3,12.97,47.84626,-54.09684
2018-05-16 04:10:00+00:00,216.7865,7.3,12.89,47.84626,-54.09684
2018-05-16 04:20:00+00:00,207.7148,7.3,12.97,47.84626,-54.09684
2018-05-16 04:30:00+00:00,199.1298,7.3,12.97,47.84626,-54.09684
2018-05-16 04:40:00+00:00,194.3297,7.3,12.97,47.84626,-54.09684
2018-05-16 04:50:00+00:00,191.2082,7.3,12.97,47.84626,-54.09684
2018-05-16 05:00:00+00:00,185.5898,7.31,12.97,47.84626,-54.09684
2018-05-16 05:10:00+00:00,179.0631,7.3,12.89,47.84626,-54.09684
2018-05-16 05:20:00+00:00,176.9532,7.29,12.97,47.84626,-54.09684
2018-05-16 05:30:00+00:00,179.1215,7.25,12.97,47.84626,-54.09684
2018-05-16 05:40:00+00:00,180.7632,7.25,12.97,47.84626,-54.09684
2018-05-16 05:50:00+00:00,178.7182,7.28,12.97,47.84626,-54.09684
2018-05-16 06:00:00+00:00,176.0531,7.28,12.89,47.84626,-54.09684
2018-05-16 06:10:00+00:00,172.3882,7.25,12.89,47.84626,-54.09684
2018-05-16 06:20:00+00:00,171.6981,7.25,12.97,47.84626,-54.09684
2018-05-16 06:30:00+00:00,176.5365,7.2,12.97,47.84626,-54.09684
2018-05-16 06:40:00+00:00,183.7215,7.2,12.97,47.84626,-54.09684
2018-05-16 06:50:00+00:00,188.6365,7.2,12.97,47.84626,-54.09684
2018-05-16 07:00:00+00:00,191.6465,7.2,12.89,47.84626,-54.09684
2018-05-16 07:10:00+00:00,196.7715,7.2,12.89,47.84626,-54.09684
2018-05-16 07:20:00+00:00,202.5464,7.2,12.89,47.84626,-54.09684
2018-05-16 07:30:00+00:00,209.5965,7.2,12.97,47.84626,-54.09684
2018-05-16 07:40:00+00:00,212.9031,7.2,12.97,47.84626,-54.09684
2018-05-16 07:50:00+00:00,217.9264,7.2,12.97,47.84626,-54.09684
2018-05-16 08:00:00+00:00,224.0298,7.19,12.89,47.84626,-54.09684
2018-05-16 08:10:00+00:00,227.6731,7.2,12.89,47.84626,-54.09684
2018-05-16 08:20:00+00:00,229.8781,7.2,12.89,47.84626,-54.09684
2018-05-16 08:30:00+00:00,234.8498,7.2,12.97,47.84626,-54.09684
2018-05-16 08:40:00+00:00,242.5381,7.2,12.97,47.84626,-54.09684
2018-05-16 08:50:00+00:00,250.4414,7.2,12.97,47.84626,-54.09684
2018-05-16 09:00:00+00:00,252.3581,7.18,12.89,47.84626,-54.09684
2018-05-16 09:10:00+00:00,254.4597,7.19,12.89,47.84626,-54.09684
2018-05-16 09:20:00+00:00,259.0481,7.18,12.97,47.84626,-54.09684
2018-05-16 09:30:00+00:00,272.3797,7.1,12.97,47.84626,-54.09684
2018-05-16 09:40:00+00:00,279.1564,7.16,12.97,47.84626,-54.09684
2018-05-16 09:50:00+00:00,283.1746,7.17,13.05,47.84626,-54.09684
2018-05-16 10:00:00+00:00,284.368,7.2,12.97,47.84626,-54.09684
2018-05-16 10:10:00+00:00,292.5831,7.2,12.97,47.84626,-54.09684
2018-05-16 10:20:00+00:00,298.438,7.2,13.13,47.84626,-54.09684
2018-05-16 10:30:00+00:00,303.628,7.22,13.21,47.84626,-54.09684
2018-05-16 10:40:00+00:00,309.043,7.28,13.29,47.84626,-54.09684
2018-05-16 10:50:00+00:00,322.178,7.2,13.37,47.84626,-54.09684
2018-05-16 11:00:00+00:00,329.1712,7.29,13.37,47.84626,-54.09684
2018-05-16 11:10:00+00:00,342.7113,7.4,13.84,47.84626,-54.09684
2018-05-16 11:20:00+00:00,351.088,7.53,15.99,47.84626,-54.09684
2018-05-16 11:30:00+00:00,351.0214,7.07,14.32,47.84626,-54.09684
2018-05-16 11:40:00+00:00,339.773,7.02,16.15,47.84626,-54.09684
2018-05-16 11:50:00+00:00,341.8931,6.6,14.48,47.84626,-54.09684
2018-05-16 12:00:00+00:00,356.2897,6.86,14.4,47.84626,-54.09684
2018-05-16 12:10:00+00:00,352.338,7.33,14.32,47.84626,-54.09684
2018-05-16 12:20:00+00:00,345.7496,7.7,14.56,47.84626,-54.09684
2018-05-16 12:30:00+00:00,352.5463,7.68,15.11,47.84626,-54.09684
2018-05-16 12:40:00+00:00,365.8679,7.7,16.07,47.84626,-54.09684
2018-05-16 12:50:00+00:00,353.6412,7.9,15.35,47.84626,-54.09684
2018-05-16 13:00:00+00:00,338.288,6.68,14.64,47.84626,-54.09684
2018-05-16 13:10:00+00:00,339.0213,6.94,14.32,47.84626,-54.09684
2018-05-16 13:20:00+00:00,336.363,7.46,14.88,47.84626,-54.09684
2018-05-16 13:30:00+00:00,319.298,7.68,14.72,47.84626,-54.09684
2018-05-16 13:40:00+00:00,315.8613,7.38,14.88,47.84626,-54.09684
2018-05-16 13:50:00+00:00,336.9513,7.64,14.8,47.84626,-54.09684
2018-05-16 14:00:00+00:00,332.843,7.83,14.64,47.84626,-54.09684
2018-05-16 14:10:00+00:00,315.9296,7.9,14.56,47.84626,-54.09684
2018-05-16 14:20:00+00:00,317.4963,6.95,14.72,47.84626,-54.09684
2018-05-16 14:30:00+00:00,322.4513,7.82,14.72,47.84626,-54.09684
2018-05-16 14:40:00+00:00,299.3196,7.99,14.72,47.84626,-54.09684
2018-05-16 14:50:00+00:00,271.8447,8.2,14.64,47.84626,-54.09684
2018-05-16 15:00:00+00:00,271.3698,8.2,14.56,47.84626,-54.09684
2018-05-16 15:10:00+00:00,275.2847,8.19,14.48,47.84626,-54.09684
2018-05-16 15:20:00+00:00,255.5064,8.19,14.64,47.84626,-54.09684
2018-05-16 15:30:00+00:00,232.7747,8.2,14.56,47.84626,-54.09684
2018-05-16 15:40:00+00:00,235.1147,7.71,14.64,47.84626,-54.09684
2018-05-16 15:50:00+00:00,233.7448,7.87,14.56,47.84626,-54.09684
2018-05-16 16:00:00+00:00,219.8714,8.01,14.48,47.84626,-54.09684
2018-05-16 16:10:00+00:00,200.5698,8.08,14.4,47.84626,-54.09684
2018-05-16 16:20:00+00:00,195.7115,8.1,14.56,47.84626,-54.09684
2018-05-16 16:30:00+00:00,191.5181,8.1,14.48,47.84626,-54.09684
2018-05-16 16:40:00+00:00,172.7298,8.1,14.48,47.84626,-54.09684
2018-05-16 16:50:00+00:00,162.8432,8.0,14.48,47.84626,-54.09684
2018-05-16 17:00:00+00:00,170.8548,7.17,14.32,47.84626,-54.09684
2018-05-16 17:10:00+00:00,167.4098,6.95,14.24,47.84626,-54.09684
2018-05-16 17:20:00+00:00,157.5348,7.29,14.32,47.84626,-54.09684
2018-05-16 17:30:00+00:00,170.6948,7.3,14.32,47.84626,-54.09684
2018-05-16 17:40:00+00:00,178.4381,7.0,14.32,47.84626,-54.09684
2018-05-16 17:50:00+00:00,172.4214,6.9,14.24,47.84626,-54.09684
2018-05-16 18:00:00+00:00,172.8881,6.9,14.16,47.84626,-54.09684
2018-05-16 18:10:00+00:00,178.1165,6.8,14.0,47.84626,-54.09684
2018-05-16 18:20:00+00:00,179.5732,6.82,14.08,47.84626,-54.09684
2018-05-16 18:30:00+00:00,177.1865,6.83,14.08,47.84626,-54.09684
2018-05-16 18:40:00+00:00,183.5965,6.94,14.08,47.84626,-54.09684
2018-05-16 18:50:00+00:00,195.5548,7.0,14.0,47.84626,-54.09684
2018-05-16 19:00:00+00:00,201.6165,6.74,14.0,47.84626,-54.09684
2018-05-16 19:10:00+00:00,200.3048,6.4,13.92,47.84626,-54.09684
2018-05-16 19:20:00+00:00,206.7414,6.5,13.92,47.84626,-54.09684
2018-05-16 19:30:00+00:00,219.9864,6.41,13.92,47.84626,-54.09684
2018-05-16 19:40:00+00:00,220.9464,6.5,14.0,47.84626,-54.09684
2018-05-16 19:50:00+00:00,221.5848,6.3,14.0,47.84626,-54.09684
2018-05-16 20:00:00+00:00,229.5664,6.17,13.92,47.84626,-54.09684
2018-05-16 20:10:00+00:00,241.0131,6.2,13.84,47.84626,-54.09684
2018-05-16 20:20:00+00:00,246.6831,6.0,13.92,47.84626,-54.09684
2018-05-16 20:30:00+00:00,249.0898,5.8,13.92,47.84626,-54.09684
2018-05-16 20:40:00+00:00,249.8281,6.15,13.92,47.84626,-54.09684
2018-05-16 20:50:00+00:00,263.4814,6.14,13.92,47.84626,-54.09684
2018-05-16 21:00:00+00:00,273.9963,5.3,13.84,47.84626,-54.09684
2018-05-16 21:10:00+00:00,267.3248,6.15,13.76,47.84626,-54.09684
2018-05-16 21:20:00+00:00,266.8798,6.5,13.76,47.84626,-54.09684
2018-05-16 21:30:00+00:00,288.2847,5.3,13.76,47.84626,-54.09684
2018-05-16 21:40:00+00:00,304.098,5.0,13.84,47.84626,-54.09684
2018-05-16 21:50:00+00:00,302.2264,5.11,13.76,47.84626,-54.09684
2018-05-16 22:00:00+00:00,306.6014,5.3,13.68,47.84626,-54.09684
2018-05-16 22:10:00+00:00,322.5663,5.19,13.6,47.84626,-54.09684
2018-05-16 22:20:00+00:00,330.0046,4.88,13.6,47.84626,-54.09684
2018-05-16 22:30:00+00:00,331.5098,4.88,13.6,47.84626,-54.09684
2018-05-16 22:40:00+00:00,340.2829,4.9,13.6,47.84626,-54.09684
2018-05-16 22:50:00+00:00,354.853,5.03,13.53,47.84626,-54.09684
2018-05-16 23:00:00+00:00,361.1679,4.8,13.44,47.84626,-54.09684
2018-05-16 23:10:00+00:00,361.6546,4.78,13.29,47.84626,-54.09684
2018-05-16 23:20:00+00:00,370.5096,4.8,13.29,47.84626,-54.09684
2018-05-16 23:30:00+00:00,383.1112,4.9,13.29,47.84626,-54.09684
2018-05-16 23:40:00+00:00,387.0079,4.7,13.29,47.84626,-54.09684
2018-05-16 23:50:00+00:00,390.5428,4.7,13.29,47.84626,-54.09684
